Hourly Data Report for November 24, 2019

OTTAWA INTL A
ONTARIO
Current Station Operator: NAVCAN

45°19'00.000" N
75°40'00.000" W
114.90 m
6106001
71628
YOW

Download Data

Hourly Data (November 2019)
Hourly Data Report for November 24, 2019
TIME Temp Definition
°C
Dew Point Definition
°C
Rel Hum Definition
%
Wind Dir Definition
10's deg

Wind Spd Definition
km/h
Visibility Definition
km
Stn Press Definition
kPa
Hmdx Definition


Wind Chill Definition


Weather Definition


00:00 -2.2 -3.3 92 10 7 24.1 98.97   -5 LegendNANA
01:00 -2.6 -3.6 93 4 10 24.1 98.94   -6 Cloudy
02:00 -1.9 -2.6 94 6 13 24.1 98.86   -6 LegendNANA
03:00 -2.2 -3.1 93 3 10 24.1 98.84   -6 LegendNANA
04:00 -3.4 -4.2 94 3 8 24.1 98.90   -7 Mainly Clear
05:00 -4.0 -4.5 96 7 10 24.1 98.81   -8 LegendNANA
06:00 -4.6 -5.3 95 2 10 24.1 98.76   -9 LegendNANA
07:00 -4.7 -5.3 96 3 11 24.1 98.70   -9 Clear
08:00 -4.1 -4.5 97 3 9 24.1 98.70   -8 LegendNANA
09:00 -1.7 -2.4 95 36 10 24.1 98.72   -5 LegendNANA
10:00 0.2 -1.6 87 6 13 24.1 98.65     Clear
11:00 2.0 -2.1 75 8 8 24.1 98.59     LegendNANA
12:00 3.3 -2.5 66 8 3 24.1 98.49     LegendNANA
13:00 4.2 -2.9 60 36 4 24.1 98.45     Clear
14:00 4.7 -3.5 56 36 3 24.1 98.39     LegendNANA
15:00 4.8 -3.6 55 18 7 24.1 98.38     LegendNANA
16:00 3.2 -3.8 60 10 7 24.1 98.39     Clear
17:00 1.9 -3.3 69 10 8 24.1 98.40     LegendNANA
18:00 -0.1 -3.3 79 12 8 24.1 98.46   -3 LegendNANA
19:00 0.1 -2.6 82 9 7 24.1 98.48     Mostly Cloudy
20:00 -0.3 -2.5 85 10 6 24.1 98.50   -2 LegendNANA
21:00 -1.7 -3.7 86 28 9 24.1 98.53   -5 LegendNANA
22:00 -0.3 -2.2 87 33 4 24.1 98.54   -2 Mostly Cloudy
23:00 -1.2 -2.8 88 21 4 24.1 98.56   -3 LegendNANA

Notes on Data Quality.

Legend

  • E = Estimated
  • M = Missing
  • NA = Not Available*
  • [empty] = Indicates an unobserved value
Date modified: